[[{"header":{"parameterUnit":"m.s-1","parameterCategory":2,"la1":30.2991,"la2":30.254,"lo1":-89.0895,"lo2":-89.0444,"dy":0.0017,"dx":0.0017,"nx":28,"ny":28,"refTime":"2024-12-03T03:00:00:Z","depth":"0","parameterNumber":2,"parameterNumberName":"U-component_of_CURRENTS"},"data":[0,0,0,0,0,0,0,0,0,0,0,0,0,0,0,0,0,0,0,0,0,0,0,0,0,0,0,0,0,0,0,0,0,0,0,0,0,0,0,0,0,0,0,0,0,0,0,0,0,0,0,0,0,0,0,0,0,0,0.3637,0.3638,0,0.3692,0.3692,0.3693,0.3681,0.3681,0.368,0.3679,0.3684,0.3685,0.3686,0,0,0,0,0,0,0,0,0,0,0,0,0,0.3537,0.3538,0.3637,0.3638,0.364,0.3692,0.3692,0.3693,0.3681,0.3681,0.368,0.3679,0.3684,0.3685,0.3686,0,0,0,0,0,0,0,0,0,0,0,0,0,0.3581,0.3539,0.3637,0.3643,0.3645,0.3692,0.3693,0.3693,0.3681,0.3681,0.368,0.3679,0.3684,0.3685,0.3686,0.371,0,0,0.3689,0.369,0,0,0,0,0,0,0,0,0.3578,0.3584,0.3641,0.3643,0.3645,0.3683,0.3659,0.3698,0.3682,0.3663,0.3679,0.3678,0.3683,0.3684,0.3691,0.3711,0.3711,0.3689,0.369,0.369,0.3691,0,0,0,0,0,0,0,0.3575,0.3581,0.3654,0.3643,0.3645,0.3649,0.3653,0.3666,0.3673,0.3664,0.3665,0.3678,0.3683,0.369,0.3691,0.3711,0.3689,0.369,0.3691,0.3691,0.381,0.3813,0,0,0,0,0,0,0.3578,0.3579,0.3653,0.3657,0.3614,0.3652,0.3657,0.3668,0.3674,0.3676,0.3679,0.3678,0.3688,0.3689,0.3691,0.3765,0.369,0.3691,0.3692,0.3808,0.3811,0.3814,0,0,0,0,0,0,0.3576,0.3584,0.3651,0.3622,0.3632,0.3655,0.3667,0.367,0.3682,0.3686,0.3686,0.369,0.3688,0.3689,0.3721,0.3763,0.3692,0.3693,0.3805,0.3809,0.3812,0.3884,0,0,0,0,0,0,0.3572,0.3583,0.359,0.3623,0.3634,0.3689,0.3669,0.3671,0.3693,0.3692,0.3696,0.3695,0.3687,0.372,0.3722,0.3763,0.3694,0.3802,0.3807,0.3811,0.3878,0.3889,0.3899,0,0,0,0,0,0.3568,0.3583,0.359,0.3599,0.3644,0.3691,0.3697,0.3706,0.3695,0.371,0.3718,0.3695,0.3752,0.3723,0.3725,0.3767,0.3799,0.3805,0.3811,0.3873,0.3887,0.3899,0,0,0,0,0,0,0.3538,0.3585,0.3593,0.3619,0.3658,0.3691,0.3708,0.3714,0.3732,0.3729,0.3721,0.3723,0.3771,0.3763,0.373,0.3819,0.3775,0.3781,0.3822,0.3835,0.3845,0.3857,0.3694,0,0,0,0,0,0.3539,0.3564,0.3609,0.3632,0.3654,0.3682,0.3701,0.3713,0.3736,0.3742,0.3747,0.3763,0.3798,0.3808,0.383,0.3871,0.3879,0.3904,0.3914,0.3923,0.3937,0.4002,0.402,0.3833,0.3832,0.3832,0,0,0.3531,0.3564,0.3575,0.3629,0.3656,0.37,0.369,0.3729,0.3766,0.3741,0.3784,0.3799,0.3819,0.3872,0.3892,0.3867,0.3979,0.393,0.3937,0.3947,0.401,0.4028,0.4044,0.3836,0.3836,0.3835,0,0,0.354,0.3563,0.3591,0.363,0.3686,0.3714,0.3729,0.3771,0.379,0.3836,0.3841,0.3886,0.3913,0.3952,0.3972,0.4056,0.4035,0.4058,0.4117,0.418,0.4195,0.4209,0.423,0.4245,0.406,0.406,0.406,0,0.3527,0.3573,0.3606,0.3651,0.3689,0.3723,0.3767,0.3803,0.3849,0.3881,0.3857,0.3952,0.396,0.4056,0.4084,0.4081,0.4094,0.4062,0.4193,0.4207,0.422,0.4238,0.4254,0.4064,0.4064,0.4063,0.4063,0,0.3562,0.3603,0.3627,0.3697,0.3741,0.3787,0.3848,0.3891,0.3913,0.395,0.4037,0.4063,0.412,0.4138,0.4132,0.4242,0.4213,0.4199,0.4156,0.4243,0.4256,0.4271,0.407,0.4069,0.4067,0.4066,0,0,0.3516,0.3628,0.3634,0.3673,0.377,0.3804,0.389,0.3976,0.403,0.4081,0.4155,0.4232,0.4246,0.4272,0.4285,0.4339,0.4433,0.4307,0.4308,0.4319,0.4547,0.4512,0.4524,0.444,0.4443,0.4446,0.4513,0,0.3531,0.3609,0.3673,0.375,0.3794,0.3872,0.3945,0.4027,0.4093,0.4171,0.4239,0.4307,0.4299,0.4326,0.439,0.4427,0.448,0.4415,0.4469,0.4471,0.4423,0.4544,0.4409,0.4458,0.4528,0.453,0.4532,0,0.3539,0.3594,0.3665,0.3776,0.3803,0.3855,0.3976,0.4049,0.4184,0.4237,0.4338,0.4383,0.4495,0.4455,0.4587,0.4543,0.4557,0.4574,0.4577,0.4533,0.4466,0.4387,0.4483,0.4407,0.4555,0.4553,0.4552,0,0.347,0.3586,0.3637,0.3675,0.3805,0.3852,0.3922,0.4057,0.4143,0.4279,0.4353,0.4478,0.4547,0.4608,0.4666,0.4627,0.4787,0.4732,0.4716,0.471,0.4603,0.4584,0.4626,0.4826,0.4825,0.4825,0.4825,0,0.3455,0.3495,0.3602,0.3626,0.3697,0.3798,0.3888,0.3989,0.4143,0.4242,0.4371,0.4479,0.4593,0.4698,0.4711,0.4781,0.4832,0.4759,0.475,0.4622,0.4605,0.4537,0.4494,0.4828,0.4827,0.4827,0.4826,0,0.3376,0.3447,0.3508,0.3626,0.3665,0.3705,0.3865,0.3929,0.4093,0.423,0.4281,0.4511,0.4645,0.4746,0.4855,0.4847,0.4783,0.49,0.4727,0.4698,0.4577,0.4543,0.4411,0.4272,0.488,0.488,0.488,0,0.3344,0.3364,0.3476,0.3501,0.3552,0.3632,0.3689,0.3873,0.3959,0.4238,0.4297,0.4512,0.4635,0.4817,0.4861,0.491,0.4775,0.4789,0.4701,0.4591,0.4546,0.4362,0.4239,0.4573,0.457,0.4568,0.4566,0,0.3277,0.3311,0.3355,0.341,0.3459,0.3524,0.3624,0.3703,0.3911,0.4048,0.4233,0.4365,0.4606,0.4647,0.477,0.4778,0.4586,0.4745,0.469,0.4377,0.4122,0.3975,0.4482,0.4547,0.4549,0.4551,0.4552,0.4553,0.321,0.3217,0.3263,0.3307,0.3354,0.3386,0.3391,0.3524,0.3646,0.3824,0.4048,0.4189,0.4421,0.4599,0.4583,0.4532,0.4464,0.4408,0.4393,0.4229,0.4043,0.4502,0.4525,0.4527,0.4528,0.453,0.4531,0,0.3112,0.3127,0.3158,0.3186,0.3169,0.3243,0.3316,0.33,0.3363,0.3604,0.3743,0.3978,0.4103,0.4261,0.4357,0.4222,0.4004,0.4107,0.3828,0.3736,0.4217,0.4155,0.4029,0.4029,0.4029,0.4029,0.4029,0.4029,0.3061,0.3036,0.3049,0.2984,0.2992,0.2919,0.2916,0.2941,0.3066,0.3205,0.3351,0.3547,0.3959,0.4225,0.4174,0.4056,0.3725,0.3565,0.3524,0.391,0.3936,0.396,0.3894,0.3715,0.3715,0.2884,0.2878,0.2874]},{"header":{"parameterUnit":"m.s-1","parameterCategory":2,"la1":30.2991,"la2":30.254,"lo1":-89.0895,"lo2":-89.0444,"dy":0.0017,"dx":0.0017,"nx":28,"ny":28,"refTime":"2024-12-03T03:00:00:Z","depth":"0","parameterNumber":3,"parameterNumberName":"V-component_of_CURRENTS"},"data":[0,0,0,0,0,0,0,0,0,0,0,0,0,0,0,0,0,0,0,0,0,0,0,0,0,0,0,0,0,0,0,0,0,0,0,0,0,0,0,0,0,0,0,0,0,0,0,0,0,0,0,0,0,0,0,0,0,0,-0.0136,-0.0137,0,-0.0226,-0.0227,-0.0229,-0.029,-0.029,-0.029,-0.029,-0.0395,-0.0398,-0.04,0,0,0,0,0,0,0,0,0,0,0,0,0,-0.0089,-0.0089,-0.0136,-0.0137,-0.0138,-0.0226,-0.0227,-0.0229,-0.029,-0.029,-0.029,-0.029,-0.0394,-0.0398,-0.0401,0,0,0,0,0,0,0,0,0,0,0,0,0,-0.014,-0.009,-0.0136,-0.0177,-0.0181,-0.0226,-0.0228,-0.0229,-0.029,-0.029,-0.029,-0.0291,-0.0393,-0.0397,-0.0401,-0.0419,0,0,-0.0413,-0.0415,0,0,0,0,0,0,0,0,-0.0137,-0.0142,-0.017,-0.0174,-0.0179,-0.0245,-0.0249,-0.0293,-0.029,-0.0251,-0.029,-0.0291,-0.0344,-0.0352,-0.0372,-0.0424,-0.0429,-0.0413,-0.0416,-0.0417,-0.0419,0,0,0,0,0,0,0,-0.0133,-0.0138,-0.0175,-0.0171,-0.0177,-0.0215,-0.0223,-0.0258,-0.0297,-0.0255,-0.0259,-0.0264,-0.0347,-0.0368,-0.0375,-0.043,-0.0413,-0.0417,-0.0419,-0.0421,-0.0492,-0.0492,0,0,0,0,0,0,-0.0112,-0.0135,-0.0172,-0.0177,-0.0155,-0.0215,-0.0224,-0.0226,-0.0297,-0.0307,-0.0264,-0.0267,-0.0361,-0.037,-0.0379,-0.038,-0.0417,-0.0421,-0.0423,-0.0493,-0.0492,-0.0492,0,0,0,0,0,0,-0.0111,-0.0115,-0.0168,-0.0156,-0.0165,-0.0215,-0.0217,-0.0227,-0.0242,-0.0303,-0.0315,-0.0268,-0.0362,-0.0373,-0.04,-0.0385,-0.0423,-0.0426,-0.0493,-0.0493,-0.0492,-0.0398,0,0,0,0,0,0,-0.0109,-0.0114,-0.0108,-0.0154,-0.0165,-0.0179,-0.0217,-0.0229,-0.0244,-0.0249,-0.031,-0.0321,-0.0363,-0.0394,-0.0404,-0.0392,-0.0429,-0.0494,-0.0493,-0.0492,-0.0402,-0.0394,-0.0388,0,0,0,0,0,-0.0107,-0.0089,-0.0107,-0.0112,-0.0156,-0.0177,-0.0186,-0.0226,-0.0244,-0.0242,-0.0285,-0.0319,-0.0396,-0.0396,-0.0408,-0.0397,-0.0494,-0.0493,-0.0492,-0.0405,-0.0396,-0.0388,0,0,0,0,0,0,-0.0065,-0.0095,-0.0116,-0.0108,-0.0135,-0.0186,-0.0187,-0.0216,-0.025,-0.0251,-0.0313,-0.0326,-0.0347,-0.0384,-0.0383,-0.0416,-0.0451,-0.0452,-0.038,-0.0372,-0.0365,-0.0334,-0.0433,0,0,0,0,0,-0.0052,-0.0049,-0.0087,-0.0082,-0.009,-0.0138,-0.0152,-0.0176,-0.0212,-0.0227,-0.0272,-0.0317,-0.0353,-0.037,-0.041,-0.0425,-0.0459,-0.0426,-0.0419,-0.0413,-0.0396,-0.0441,-0.0437,-0.0488,-0.0488,-0.0488,0,0,-0.0035,-0.0051,-0.005,-0.0073,-0.0099,-0.0093,-0.0147,-0.0155,-0.0152,-0.0232,-0.0242,-0.0295,-0.0353,-0.0371,-0.0383,-0.0399,-0.0416,-0.0412,-0.0406,-0.0392,-0.044,-0.0435,-0.043,-0.0488,-0.0488,-0.0488,0,0,0.0012,-0.0011,0.0011,-0.0005,-0.0029,-0.0055,-0.005,-0.0093,-0.0114,-0.0133,-0.0189,-0.0228,-0.0285,-0.0321,-0.0348,-0.0326,-0.038,-0.0342,-0.0278,-0.0322,-0.0318,-0.0315,-0.0345,-0.0345,-0.0335,-0.0335,-0.0335,0,0.0035,0.0056,0.0014,0.003,0.0032,-0.0028,0.0002,-0.0028,-0.0076,-0.0083,-0.012,-0.0204,-0.0259,-0.0277,-0.0274,-0.0308,-0.0338,-0.0303,-0.0312,-0.0309,-0.0308,-0.034,-0.0341,-0.0331,-0.0331,-0.0332,-0.0332,0,0.0095,0.0112,0.0125,0.0129,0.0125,0.0138,0.0101,0.009,0.0054,0.0019,-0.0015,-0.0099,-0.0143,-0.0175,-0.022,-0.0231,-0.0258,-0.0299,-0.0328,-0.0296,-0.0333,-0.0336,-0.0324,-0.0326,-0.0327,-0.0328,0,0,0.0155,0.0168,0.0174,0.02,0.0181,0.0191,0.0198,0.0191,0.0207,0.0132,0.014,0.0051,-0.0002,-0.0036,-0.0105,-0.0151,-0.0175,-0.0211,-0.0216,-0.023,-0.0261,-0.0281,-0.0287,-0.0219,-0.0219,-0.0219,-0.0288,0,0.0219,0.0283,0.0268,0.0333,0.0368,0.0324,0.0342,0.0324,0.0287,0.0274,0.0177,0.0149,0.0053,0.0032,-0.0028,-0.0135,-0.018,-0.0152,-0.0298,-0.0301,-0.0315,-0.029,-0.0269,-0.0329,-0.0292,-0.0292,-0.0293,0,0.0292,0.0327,0.0402,0.0451,0.0462,0.0483,0.0509,0.0516,0.0473,0.0441,0.0385,0.0308,0.0234,0.0141,-0.0016,0.0007,-0.0111,-0.0206,-0.0211,-0.0262,-0.0327,-0.0357,-0.0337,-0.0566,-0.0298,-0.0298,-0.0297,0,0.0369,0.0429,0.0497,0.0509,0.0543,0.0567,0.0581,0.0564,0.0598,0.0544,0.0557,0.044,0.0399,0.0234,0.0036,0.0012,-0.0141,-0.0202,-0.033,-0.0332,-0.0358,-0.0362,-0.0566,-0.031,-0.031,-0.031,-0.031,0,0.0451,0.0507,0.0537,0.0571,0.0667,0.065,0.0733,0.0721,0.073,0.0794,0.065,0.0671,0.042,0.03,0.0095,-0.0113,-0.0097,-0.0304,-0.0348,-0.0325,-0.0325,-0.0562,-0.0712,-0.0313,-0.0312,-0.0312,-0.0311,0,0.0527,0.0541,0.0627,0.0677,0.0705,0.0767,0.085,0.0907,0.089,0.0968,0.0963,0.0856,0.0699,0.0443,0.0184,-0.0013,-0.0368,-0.0313,-0.026,-0.0297,-0.0632,-0.0776,-0.1042,-0.114,-0.0457,-0.0458,-0.0459,0,0.057,0.062,0.0711,0.0776,0.08,0.089,0.0962,0.0984,0.1062,0.1096,0.1153,0.1028,0.0975,0.0582,0.0204,-0.0145,-0.039,-0.0368,-0.0421,-0.0636,-0.0831,-0.0944,-0.1014,-0.0419,-0.0419,-0.042,-0.042,0,0.0657,0.0681,0.0752,0.0887,0.0973,0.1088,0.1192,0.1286,0.1332,0.1401,0.1469,0.1429,0.1062,0.0727,0.0232,-0.0037,-0.054,-0.0385,-0.0629,-0.083,-0.0946,-0.1063,-0.0386,-0.0422,-0.0422,-0.0422,-0.0422,-0.0422,0.0721,0.0787,0.0879,0.1012,0.1118,0.1261,0.1379,0.1504,0.1653,0.1785,0.173,0.1726,0.1217,0.055,0.0153,-0.0551,-0.058,-0.0759,-0.0917,-0.1009,-0.1111,-0.0428,-0.0506,-0.0506,-0.0506,-0.0507,-0.0507,0,0.0803,0.0878,0.1003,0.1154,0.1283,0.1326,0.1522,0.1652,0.1847,0.1976,0.2043,0.1809,0.117,0.05,-0.0439,-0.096,-0.1164,-0.1269,-0.1434,-0.148,-0.0882,-0.0885,-0.1023,-0.1023,-0.1022,-0.1022,-0.1022,-0.1022,0.0846,0.0974,0.1036,0.1262,0.1374,0.1561,0.168,0.1877,0.2023,0.2185,0.2211,0.2189,0.167,-0.0047,-0.1212,-0.1494,-0.1878,-0.1988,-0.2171,-0.1781,-0.1745,-0.1711,-0.1748,-0.2065,-0.2066,-0.2672,-0.2679,-0.2684]}],[{"header":{"parameterUnit":"m.s-1","parameterCategory":2,"la1":30.2991,"la2":30.254,"lo1":-89.0895,"lo2":-89.0444,"dy":0.0017,"dx":0.0017,"nx":28,"ny":28,"refTime":"2024-12-03T03:00:00:Z","depth":"2","parameterNumber":2,"parameterNumberName":"U-component_of_CURRENTS"},"data":[0,0,0,0,0,0,0,0,0,0,0,0,0,0,0,0,0,0,0,0,0,0,0,0,0,0,0,0,0,0,0,0,0,0,0,0,0,0,0,0,0,0,0,0,0,0,0,0,0,0,0,0,0,0,0,0,0,0,0.3415,0.3416,0,0.3466,0.3467,0.3467,0.3465,0.3465,0.3465,0.3464,0.3478,0.3479,0.348,0,0,0,0,0,0,0,0,0,0,0,0,0,0.3322,0.3323,0.3415,0.3416,0.3417,0.3466,0.3467,0.3467,0.3465,0.3465,0.3465,0.3464,0.3478,0.3479,0.348,0,0,0,0,0,0,0,0,0,0,0,0,0,0.3363,0.3323,0.3415,0.3425,0.3427,0.3466,0.3467,0.3467,0.3466,0.3465,0.3465,0.3464,0.3478,0.3479,0.348,0.3496,0,0,0.3483,0.3483,0,0,0,0,0,0,0,0,0.336,0.3365,0.3423,0.3425,0.3427,0.3463,0.3439,0.3476,0.3466,0.3446,0.3464,0.3464,0.3473,0.3474,0.3479,0.3496,0.3497,0.3483,0.3484,0.3484,0.3484,0,0,0,0,0,0,0,0.3357,0.3363,0.3431,0.3424,0.3426,0.343,0.3435,0.3446,0.3458,0.3448,0.3449,0.3462,0.3473,0.3478,0.348,0.3497,0.3483,0.3484,0.3484,0.3485,0.3599,0.3601,0,0,0,0,0,0,0.336,0.3361,0.3429,0.3433,0.3396,0.3432,0.3437,0.3448,0.3458,0.3461,0.3462,0.3462,0.3477,0.3479,0.348,0.3556,0.3484,0.3485,0.3486,0.3597,0.36,0.3602,0,0,0,0,0,0,0.3358,0.3366,0.3427,0.3401,0.341,0.3435,0.3447,0.345,0.3468,0.347,0.3471,0.3479,0.3477,0.3479,0.3513,0.3554,0.3485,0.3486,0.3594,0.3598,0.3601,0.3671,0,0,0,0,0,0,0.3355,0.3364,0.3375,0.3402,0.3412,0.3465,0.3448,0.3451,0.3477,0.3477,0.3485,0.3485,0.3476,0.3512,0.3514,0.3554,0.3487,0.3591,0.3596,0.36,0.3666,0.3677,0.3687,0,0,0,0,0,0.3351,0.3367,0.3375,0.3383,0.3424,0.3467,0.3473,0.3485,0.3479,0.3497,0.3506,0.3485,0.3543,0.3515,0.3517,0.3558,0.3589,0.3594,0.36,0.3661,0.3675,0.3686,0,0,0,0,0,0,0.3328,0.337,0.3378,0.3405,0.3441,0.3469,0.3488,0.3496,0.3517,0.3517,0.351,0.3513,0.3562,0.3554,0.3523,0.3608,0.3565,0.3571,0.3612,0.3624,0.3634,0.3646,0.3488,0,0,0,0,0,0.3331,0.3356,0.3396,0.342,0.344,0.3466,0.3485,0.3499,0.3522,0.353,0.3537,0.3554,0.3586,0.3598,0.3618,0.3658,0.3665,0.369,0.37,0.3709,0.3722,0.378,0.3797,0.362,0.362,0.362,0,0,0.3327,0.3356,0.3368,0.3418,0.3444,0.3484,0.3476,0.3515,0.3551,0.3529,0.3574,0.3589,0.3606,0.3657,0.3678,0.3654,0.3763,0.3716,0.3723,0.3732,0.3788,0.3805,0.382,0.3624,0.3623,0.3623,0,0,0.3338,0.3362,0.3389,0.3426,0.3478,0.3502,0.3519,0.3559,0.358,0.3626,0.363,0.3675,0.3702,0.3736,0.3753,0.3834,0.3817,0.3839,0.3897,0.3953,0.3968,0.3981,0.4007,0.4021,0.3841,0.3842,0.3842,0,0.3331,0.3372,0.3404,0.3446,0.3479,0.3515,0.3554,0.359,0.3635,0.3666,0.3649,0.3738,0.3746,0.3832,0.3861,0.3858,0.3874,0.3844,0.3966,0.3979,0.3991,0.4014,0.403,0.3846,0.3845,0.3845,0.3844,0,0.3364,0.3403,0.3427,0.3491,0.3531,0.3574,0.363,0.3675,0.3701,0.3735,0.3819,0.3843,0.3897,0.3914,0.391,0.4012,0.399,0.3972,0.393,0.4013,0.4032,0.4047,0.3851,0.385,0.3849,0.3848,0,0,0.3327,0.3428,0.3435,0.3471,0.3558,0.359,0.3671,0.3751,0.3805,0.3857,0.3929,0.4,0.4017,0.4041,0.4053,0.4103,0.4197,0.4077,0.4078,0.4094,0.4307,0.4262,0.4273,0.42,0.4203,0.4205,0.4282,0,0.3342,0.3413,0.3469,0.3541,0.3581,0.3653,0.3722,0.38,0.3864,0.3942,0.4005,0.4073,0.4066,0.4096,0.4154,0.419,0.4241,0.4176,0.4232,0.4233,0.4177,0.4291,0.3947,0.3985,0.4297,0.4299,0.4301,0,0.335,0.34,0.3465,0.3566,0.3591,0.3641,0.3756,0.3825,0.3955,0.4008,0.4105,0.4148,0.4255,0.4219,0.4342,0.4302,0.4318,0.4334,0.4337,0.4283,0.4217,0.3956,0.3999,0.4325,0.4323,0.4321,0.432,0,0.3289,0.3395,0.3442,0.3476,0.3596,0.3643,0.371,0.3838,0.3919,0.4055,0.4128,0.4243,0.4314,0.437,0.4426,0.4389,0.454,0.4485,0.4462,0.4456,0.4169,0.4134,0.4573,0.4573,0.4573,0.4572,0.4572,0,0.3275,0.3313,0.3415,0.3438,0.3508,0.3599,0.3688,0.3787,0.3934,0.4028,0.4153,0.4251,0.436,0.4458,0.4471,0.4532,0.4584,0.4504,0.4494,0.4184,0.4151,0.4445,0.4429,0.4575,0.4575,0.4574,0.4574,0,0.3204,0.3271,0.3328,0.3441,0.3479,0.3522,0.3675,0.3738,0.3897,0.4028,0.4081,0.4293,0.4417,0.4511,0.4611,0.4597,0.4641,0.464,0.4264,0.4211,0.4497,0.4485,0.4616,0.4615,0.4615,0.4615,0.4614,0,0.3174,0.3194,0.3303,0.3329,0.338,0.3462,0.3517,0.3693,0.3774,0.4037,0.4092,0.4295,0.4398,0.4563,0.4572,0.4609,0.4664,0.4301,0.418,0.4535,0.4512,0.45,0.4488,0.381,0.3803,0.3798,0.3793,0,0.3112,0.3148,0.319,0.3247,0.3299,0.336,0.346,0.3528,0.3726,0.3856,0.4024,0.4139,0.4334,0.4246,0.4345,0.4312,0.4268,0.4192,0.4671,0.3873,0.3788,0.3761,0.3773,0.3743,0.3748,0.3752,0.3754,0.3756,0.3052,0.3059,0.3107,0.3151,0.3202,0.3228,0.3232,0.3352,0.3462,0.3606,0.3813,0.3863,0.3958,0.3943,0.3857,0.3801,0.4087,0.3881,0.3893,0.3911,0.3825,0.3746,0.3675,0.368,0.3684,0.3687,0.369,0,0.2961,0.2978,0.3008,0.3039,0.3024,0.31,0.3163,0.3129,0.3176,0.3344,0.3452,0.3245,0.3245,0.3325,0.3182,0.3231,0.3142,0.3084,0.2909,0.2965,0.3014,0.2874,0.2476,0.2471,0.2467,0.2463,0,0,0.2914,0.289,0.29,0.2841,0.2857,0.2787,0.2778,0.2767,0.2831,0.2822,0.2832,0.3094,0.3239,0.2793,0.2777,0.2586,0.2737,0.2493,0.348,0.3331,0.3372,0.3508,0.3364,0,0,0,0,0]},{"header":{"parameterUnit":"m.s-1","parameterCategory":2,"la1":30.2991,"la2":30.254,"lo1":-89.0895,"lo2":-89.0444,"dy":0.0017,"dx":0.0017,"nx":28,"ny":28,"refTime":"2024-12-03T03:00:00:Z","depth":"2","parameterNumber":3,"parameterNumberName":"V-component_of_CURRENTS"},"data":[0,0,0,0,0,0,0,0,0,0,0,0,0,0,0,0,0,0,0,0,0,0,0,0,0,0,0,0,0,0,0,0,0,0,0,0,0,0,0,0,0,0,0,0,0,0,0,0,0,0,0,0,0,0,0,0,0,0,-0.0007,-0.0008,0,-0.0091,-0.0092,-0.0093,-0.0153,-0.0153,-0.0153,-0.0154,-0.0252,-0.0254,-0.0257,0,0,0,0,0,0,0,0,0,0,0,0,0,0.0036,0.0035,-0.0007,-0.0008,-0.0009,-0.009,-0.0092,-0.0093,-0.0153,-0.0153,-0.0153,-0.0154,-0.0251,-0.0254,-0.0257,0,0,0,0,0,0,0,0,0,0,0,0,0,-0.0011,0.0035,-0.0007,-0.0047,-0.0051,-0.009,-0.0092,-0.0094,-0.0153,-0.0153,-0.0153,-0.0154,-0.025,-0.0254,-0.0257,-0.027,0,0,-0.0268,-0.027,0,0,0,0,0,0,0,0,-0.0008,-0.0012,-0.004,-0.0044,-0.0049,-0.011,-0.0113,-0.0153,-0.0152,-0.0116,-0.0154,-0.0154,-0.0204,-0.0212,-0.0229,-0.0275,-0.0279,-0.0268,-0.027,-0.0272,-0.0273,0,0,0,0,0,0,0,-0.0005,-0.001,-0.0043,-0.0041,-0.0046,-0.0083,-0.0089,-0.0121,-0.0159,-0.012,-0.0124,-0.0129,-0.0207,-0.0225,-0.0232,-0.028,-0.0268,-0.0271,-0.0274,-0.0275,-0.0336,-0.0335,0,0,0,0,0,0,0.0014,-0.0006,-0.004,-0.0045,-0.0027,-0.0083,-0.009,-0.0092,-0.0158,-0.0168,-0.0129,-0.0132,-0.0219,-0.0228,-0.0235,-0.0234,-0.0272,-0.0275,-0.0277,-0.0336,-0.0335,-0.0335,0,0,0,0,0,0,0.0015,0.0012,-0.0036,-0.0026,-0.0034,-0.0082,-0.0084,-0.0093,-0.0109,-0.0165,-0.0175,-0.0134,-0.022,-0.0231,-0.0255,-0.0239,-0.0277,-0.028,-0.0337,-0.0336,-0.0335,-0.0244,0,0,0,0,0,0,0.0017,0.0013,0.0018,-0.0024,-0.0034,-0.0046,-0.0083,-0.0094,-0.0111,-0.0115,-0.0173,-0.0183,-0.0221,-0.0249,-0.0258,-0.0245,-0.0283,-0.0337,-0.0336,-0.0335,-0.0248,-0.024,-0.0234,0,0,0,0,0,0.0019,0.0036,0.0019,0.0014,-0.0026,-0.0045,-0.0053,-0.0091,-0.011,-0.0108,-0.0148,-0.0181,-0.025,-0.0251,-0.0262,-0.0249,-0.0338,-0.0337,-0.0336,-0.0251,-0.0242,-0.0234,0,0,0,0,0,0,0.0058,0.003,0.001,0.0018,-0.0007,-0.0054,-0.0055,-0.0082,-0.0114,-0.0117,-0.0175,-0.0187,-0.0204,-0.0239,-0.0239,-0.0265,-0.0299,-0.03,-0.0231,-0.0223,-0.0216,-0.0189,-0.0286,0,0,0,0,0,0.0069,0.0073,0.0038,0.0043,0.0035,-0.001,-0.0023,-0.0046,-0.0079,-0.0094,-0.0136,-0.0178,-0.0209,-0.0224,-0.026,-0.027,-0.0307,-0.027,-0.0263,-0.0257,-0.0243,-0.0288,-0.0284,-0.0331,-0.0331,-0.0331,0,0,0.0085,0.007,0.0071,0.0051,0.0027,0.0034,-0.0019,-0.0027,-0.0023,-0.0099,-0.0107,-0.0156,-0.0208,-0.0222,-0.0232,-0.0247,-0.0263,-0.0256,-0.025,-0.0239,-0.0287,-0.0282,-0.0278,-0.0331,-0.0331,-0.0331,0,0,0.0129,0.0107,0.0128,0.0114,0.0091,0.0069,0.0072,0.0031,0.0012,-0.0005,-0.0057,-0.0092,-0.0143,-0.0174,-0.0196,-0.0172,-0.0228,-0.0187,-0.0126,-0.017,-0.0166,-0.0164,-0.02,-0.0202,-0.018,-0.018,-0.0179,0,0.0149,0.0171,0.0131,0.0148,0.0151,0.0093,0.0123,0.0095,0.0051,0.0044,0.0007,-0.0068,-0.0117,-0.0128,-0.0124,-0.0155,-0.0189,-0.0151,-0.016,-0.0158,-0.0157,-0.0195,-0.0198,-0.0175,-0.0176,-0.0176,-0.0176,0,0.0208,0.0224,0.0237,0.0242,0.0239,0.0253,0.0219,0.0208,0.0173,0.0141,0.0111,0.0034,-0.0006,-0.0033,-0.0073,-0.0082,-0.0112,-0.0148,-0.0176,-0.0146,-0.0189,-0.0193,-0.0169,-0.017,-0.0172,-0.0173,0,0,0.0261,0.0277,0.0283,0.0309,0.0293,0.0304,0.0312,0.0308,0.0322,0.0252,0.0259,0.0181,0.0129,0.01,0.0037,-0.0006,-0.0035,-0.0065,-0.0069,-0.0092,-0.0128,-0.0152,-0.016,-0.0075,-0.0075,-0.0075,-0.016,0,0.0322,0.0386,0.0373,0.0437,0.0472,0.0432,0.045,0.0435,0.0399,0.0386,0.0297,0.0272,0.0184,0.0164,0.0107,0.0003,-0.0042,-0.0008,-0.0161,-0.0165,-0.0184,-0.0164,-0.0133,-0.0206,-0.0164,-0.0165,-0.0166,0,0.0391,0.0426,0.05,0.055,0.0561,0.0583,0.0608,0.0617,0.0576,0.0545,0.0491,0.0418,0.0349,0.0263,0.0107,0.0132,0.0017,-0.0075,-0.0081,-0.0136,-0.0198,-0.0232,-0.0216,-0.0174,-0.0173,-0.0172,-0.0172,0,0.0462,0.0522,0.059,0.0602,0.0638,0.0661,0.0677,0.0662,0.0694,0.0641,0.0651,0.0539,0.0497,0.0338,0.0146,0.0127,-0.0032,-0.0085,-0.0216,-0.0219,-0.0237,-0.0241,-0.0193,-0.0193,-0.0193,-0.0193,-0.0192,0,0.0539,0.0593,0.0626,0.066,0.0752,0.0738,0.0818,0.0807,0.0814,0.0873,0.0739,0.0752,0.0513,0.0392,0.0196,-0.0013,0.0004,-0.0195,-0.0239,-0.0205,-0.0205,-0.0215,-0.0216,-0.0196,-0.0195,-0.0195,-0.0194,0,0.0608,0.0624,0.0708,0.0759,0.0787,0.0847,0.0928,0.0982,0.0964,0.1034,0.1028,0.092,0.0759,0.0515,0.026,0.0072,-0.0141,-0.0223,-0.0162,-0.0198,-0.0312,-0.0308,-0.0373,-0.0374,-0.0376,-0.0377,-0.0378,0,0.0649,0.0697,0.0788,0.0849,0.0874,0.0961,0.103,0.1052,0.1125,0.1148,0.1199,0.1068,0.1003,0.0613,0.0255,-0.0085,-0.0137,-0.0287,-0.0325,-0.0292,-0.033,-0.0323,-0.0317,-0.0315,-0.0316,-0.0316,-0.0316,0,0.073,0.0753,0.0822,0.0952,0.1035,0.1146,0.1245,0.1331,0.1372,0.143,0.1477,0.1426,0.1062,0.0723,0.0246,0.0008,-0.0234,-0.0303,-0.0283,-0.0271,-0.0244,-0.0279,-0.0274,-0.0319,-0.0318,-0.0318,-0.0318,-0.0318,0.0788,0.0851,0.094,0.1067,0.1169,0.1304,0.1415,0.1526,0.1658,0.1751,0.1693,0.1617,0.1227,0.0622,0.0202,-0.0251,-0.0232,-0.0392,-0.0389,-0.0386,-0.036,-0.0337,-0.0423,-0.0424,-0.0424,-0.0424,-0.0425,0,0.0864,0.0935,0.1054,0.1198,0.132,0.1365,0.1547,0.1655,0.182,0.1883,0.1916,0.1548,0.1159,0.0697,0.0035,-0.0352,-0.0387,-0.0483,-0.0435,-0.0429,-0.0425,-0.04,-0.0475,-0.0476,-0.0477,-0.0479,0,0,0.0903,0.1023,0.1082,0.1293,0.1401,0.1577,0.1686,0.1839,0.1928,0.1988,0.1943,0.1855,0.1298,0.082,0.0288,-0.0096,-0.0179,-0.018,-0.0097,0.0028,0.0037,-0.0329,-0.028,0,0,0,0,0]}],[{"header":{"parameterUnit":"m.s-1","parameterCategory":2,"la1":30.2991,"la2":30.254,"lo1":-89.0895,"lo2":-89.0444,"dy":0.0017,"dx":0.0017,"nx":28,"ny":28,"refTime":"2024-12-03T03:00:00:Z","depth":"4","parameterNumber":2,"parameterNumberName":"U-component_of_CURRENTS"},"data":[0,0,0,0,0,0,0,0,0,0,0,0,0,0,0,0,0,0,0,0,0,0,0,0,0,0,0,0,0,0,0,0,0,0,0,0,0,0,0,0,0,0,0,0,0,0,0,0,0,0,0,0,0,0,0,0,0,0,0.2262,0.2263,0,0.2352,0.2353,0.2353,0.2426,0.2427,0.2428,0.2429,0.2529,0.2531,0.2532,0,0,0,0,0,0,0,0,0,0,0,0,0,0.2142,0.2143,0.2262,0.2263,0.2265,0.2352,0.2353,0.2354,0.2426,0.2427,0.2429,0.243,0.2529,0.2531,0.2533,0,0,0,0,0,0,0,0,0,0,0,0,0,0.2206,0.2144,0.2262,0.2313,0.2319,0.2352,0.2353,0.2354,0.2426,0.2427,0.2429,0.243,0.2528,0.253,0.2533,0.2519,0,0,0.2541,0.2542,0,0,0,0,0,0,0,0,0.2203,0.221,0.2304,0.231,0.2316,0.2382,0.2347,0.2411,0.2426,0.2382,0.2429,0.2431,0.2481,0.2488,0.2497,0.2524,0.2528,0.2541,0.2543,0.2544,0.2544,0,0,0,0,0,0,0,0.2198,0.2207,0.2295,0.2306,0.2313,0.2328,0.2339,0.2359,0.242,0.2386,0.2393,0.2406,0.2485,0.2495,0.25,0.2529,0.2541,0.2543,0.2545,0.2546,0.2706,0.2708,0,0,0,0,0,0,0.2192,0.2203,0.2292,0.2298,0.2265,0.233,0.2341,0.2357,0.242,0.2432,0.2405,0.241,0.249,0.2497,0.2504,0.2627,0.2544,0.2546,0.2548,0.2703,0.2706,0.2709,0,0,0,0,0,0,0.2189,0.2199,0.2288,0.2254,0.2267,0.233,0.2347,0.2358,0.242,0.2435,0.2447,0.2462,0.2491,0.2501,0.2573,0.2626,0.2547,0.255,0.27,0.2704,0.2708,0.2786,0,0,0,0,0,0,0.2185,0.2197,0.2229,0.2254,0.2269,0.2342,0.2346,0.2359,0.2424,0.2433,0.2487,0.2494,0.2493,0.257,0.2576,0.2629,0.2552,0.2696,0.2702,0.2706,0.278,0.2792,0.2802,0,0,0,0,0,0.218,0.2208,0.2229,0.2242,0.2303,0.2344,0.2354,0.2401,0.2426,0.2461,0.2505,0.2496,0.2606,0.2574,0.258,0.2635,0.2694,0.27,0.2706,0.2775,0.2789,0.2802,0,0,0,0,0,0,0.2173,0.2219,0.2243,0.2286,0.233,0.2358,0.2401,0.2429,0.2489,0.2513,0.2525,0.2536,0.262,0.2619,0.2583,0.2698,0.2651,0.2658,0.2701,0.2715,0.2726,0.273,0.2554,0,0,0,0,0,0.2185,0.2225,0.2264,0.2306,0.2332,0.2376,0.2409,0.2442,0.2486,0.2517,0.2554,0.2598,0.264,0.2673,0.2704,0.2763,0.2766,0.2806,0.2817,0.2827,0.2837,0.2888,0.2905,0.2729,0.2729,0.2729,0,0,0.2195,0.2228,0.2252,0.231,0.235,0.2393,0.2401,0.2466,0.2515,0.2516,0.261,0.2641,0.2666,0.2737,0.2774,0.2749,0.2881,0.2834,0.2842,0.2847,0.2896,0.2913,0.2928,0.2733,0.2732,0.2732,0,0,0.2217,0.2267,0.2303,0.2345,0.2415,0.244,0.247,0.2529,0.2577,0.2655,0.2675,0.2742,0.2804,0.2834,0.2854,0.2947,0.2938,0.2967,0.3029,0.3079,0.3094,0.3107,0.3136,0.3151,0.2973,0.2973,0.2974,0,0.2231,0.2279,0.2322,0.2367,0.2409,0.2466,0.2513,0.2565,0.2645,0.2691,0.2702,0.2824,0.2847,0.293,0.297,0.2973,0.2995,0.2971,0.3093,0.3105,0.3117,0.3144,0.316,0.2978,0.2977,0.2977,0.2977,0,0.2264,0.2324,0.2353,0.2428,0.2477,0.2533,0.2598,0.2672,0.2735,0.278,0.2895,0.2934,0.3006,0.3029,0.3031,0.3134,0.3121,0.3098,0.3052,0.3139,0.3163,0.3177,0.2984,0.2983,0.2981,0.298,0,0,0.2236,0.2353,0.2369,0.2416,0.2518,0.2554,0.2655,0.2746,0.2819,0.2909,0.3,0.3087,0.3124,0.315,0.317,0.3218,0.332,0.3206,0.3207,0.3225,0.3433,0.322,0.3215,0.3325,0.3328,0.333,0.3416,0,0.2254,0.2338,0.2398,0.249,0.2536,0.2628,0.2709,0.2805,0.2893,0.2996,0.307,0.3163,0.3165,0.3217,0.3272,0.3312,0.3363,0.3299,0.3355,0.3356,0.3148,0.3226,0.334,0.3426,0.343,0.3432,0.3434,0,0.2255,0.2316,0.2403,0.2523,0.2554,0.2625,0.2766,0.285,0.2999,0.3071,0.3183,0.3243,0.3358,0.3333,0.3456,0.3421,0.3444,0.3459,0.3462,0.3244,0.317,0.3323,0.3459,0.3457,0.3455,0.3454,0.3452,0,0.2186,0.2314,0.2386,0.2429,0.2571,0.2646,0.2735,0.2881,0.297,0.3136,0.3218,0.3341,0.343,0.3486,0.3544,0.3518,0.3651,0.3606,0.3435,0.342,0.355,0.3535,0.3686,0.3686,0.3686,0.3686,0.3686,0,0.2152,0.2217,0.2371,0.2409,0.2511,0.2623,0.2745,0.2858,0.3021,0.3113,0.3262,0.3343,0.348,0.3569,0.3587,0.3556,0.3692,0.3457,0.3431,0.3581,0.3569,0.356,0.3544,0.3689,0.3688,0.3688,0.3687,0,0.206,0.2163,0.2255,0.242,0.2482,0.2558,0.2752,0.2826,0.3006,0.3136,0.3201,0.3393,0.349,0.3591,0.3685,0.3592,0.3589,0.3545,0.3714,0.3695,0.3312,0.33,0.3343,0.3336,0.333,0.3326,0.3322,0,0.2015,0.2056,0.2244,0.2301,0.2388,0.252,0.2602,0.2799,0.2876,0.3126,0.3167,0.335,0.3442,0.3407,0.3526,0.354,0.3502,0.3475,0.3372,0.3308,0.328,0.3277,0.3273,0.3313,0.3311,0.331,0.3308,0,0.1924,0.2014,0.2088,0.221,0.2312,0.2403,0.2542,0.2582,0.2788,0.2985,0.3045,0.31,0.3204,0.326,0.3308,0.3311,0.3472,0.3415,0.3425,0.3328,0.3272,0.3249,0.3252,0.3288,0.3291,0.3293,0.3294,0,0.1862,0.1889,0.1999,0.2088,0.2206,0.2246,0.2335,0.2415,0.2518,0.2785,0.2795,0.298,0.3157,0.3144,0.3186,0.3176,0.3117,0.3,0.3031,0.3054,0.2921,0.2805,0.2664,0,0,0,0,0,0.1782,0.1795,0.1865,0.1945,0.2051,0.2118,0.2273,0.2362,0.2562,0.2528,0.2653,0.2725,0.2784,0.2893,0.2823,0.3073,0.314,0.298,0.3023,0.3179,0.3202,0.3072,0,0,0,0,0,0,0.1725,0.1786,0.1809,0.1803,0.1827,0.1918,0.2003,0.2137,0.2131,0.2346,0.2393,0.2559,0.2664,0.2789,0.2769,0.2802,0.2772,0.3106,0.3099,0.3166,0.3187,0.3205,0.3079,0,0,0,0,0]},{"header":{"parameterUnit":"m.s-1","parameterCategory":2,"la1":30.2991,"la2":30.254,"lo1":-89.0895,"lo2":-89.0444,"dy":0.0017,"dx":0.0017,"nx":28,"ny":28,"refTime":"2024-12-03T03:00:00:Z","depth":"4","parameterNumber":3,"parameterNumberName":"V-component_of_CURRENTS"},"data":[0,0,0,0,0,0,0,0,0,0,0,0,0,0,0,0,0,0,0,0,0,0,0,0,0,0,0,0,0,0,0,0,0,0,0,0,0,0,0,0,0,0,0,0,0,0,0,0,0,0,0,0,0,0,0,0,0,0,0.009,0.0089,0,0.0033,0.0033,0.0032,-0.001,-0.0011,-0.0011,-0.0011,-0.0084,-0.0086,-0.0087,0,0,0,0,0,0,0,0,0,0,0,0,0,0.0117,0.0117,0.009,0.0089,0.0089,0.0034,0.0033,0.0032,-0.001,-0.0011,-0.0011,-0.0011,-0.0083,-0.0085,-0.0087,0,0,0,0,0,0,0,0,0,0,0,0,0,0.0086,0.0117,0.009,0.0062,0.0059,0.0034,0.0033,0.0032,-0.001,-0.0011,-0.0011,-0.0011,-0.0083,-0.0085,-0.0088,-0.0096,0,0,-0.0096,-0.0097,0,0,0,0,0,0,0,0,0.0088,0.0085,0.0067,0.0064,0.0061,0.0019,0.0016,-0.0011,-0.001,0.0015,-0.0011,-0.0012,-0.005,-0.0055,-0.0067,-0.0099,-0.0103,-0.0096,-0.0097,-0.0098,-0.0099,0,0,0,0,0,0,0,0.009,0.0087,0.0066,0.0066,0.0062,0.0038,0.0033,0.001,-0.0016,0.0012,0.001,0.0006,-0.0052,-0.0064,-0.0069,-0.0104,-0.0096,-0.0098,-0.01,-0.0101,-0.0142,-0.0142,0,0,0,0,0,0,0.0103,0.0089,0.0068,0.0064,0.0075,0.0038,0.0032,0.0032,-0.0016,-0.0023,0.0006,0.0004,-0.0059,-0.0066,-0.0071,-0.0066,-0.0098,-0.0101,-0.0102,-0.0143,-0.0142,-0.0142,0,0,0,0,0,0,0.0104,0.0102,0.007,0.0076,0.0071,0.0038,0.0037,0.0031,0.0021,-0.002,-0.0028,0.0003,-0.006,-0.0068,-0.0085,-0.007,-0.0102,-0.0104,-0.0143,-0.0143,-0.0142,-0.0067,0,0,0,0,0,0,0.0105,0.0102,0.0107,0.0078,0.0071,0.0065,0.0038,0.003,0.002,0.0016,-0.0025,-0.0033,-0.0061,-0.0081,-0.0087,-0.0074,-0.0106,-0.0144,-0.0143,-0.0142,-0.007,-0.0064,-0.0058,0,0,0,0,0,0.0106,0.0119,0.0108,0.0105,0.0079,0.0065,0.006,0.0034,0.002,0.0022,-0.0007,-0.0031,-0.008,-0.0082,-0.009,-0.0077,-0.0144,-0.0143,-0.0142,-0.0072,-0.0065,-0.0059,0,0,0,0,0,0,0.0133,0.0115,0.0102,0.0109,0.0092,0.0059,0.0059,0.004,0.0018,0.0016,-0.0026,-0.0035,-0.0046,-0.0072,-0.0073,-0.0088,-0.0116,-0.0117,-0.0061,-0.0054,-0.0048,-0.0028,-0.0108,0,0,0,0,0,0.0142,0.0147,0.0123,0.0128,0.0123,0.0091,0.0083,0.0067,0.0043,0.0033,0.0002,-0.0027,-0.0049,-0.0059,-0.0085,-0.009,-0.0126,-0.0088,-0.0082,-0.0077,-0.0067,-0.0111,-0.0108,-0.0139,-0.0139,-0.0139,0,0,0.0154,0.0145,0.0147,0.0134,0.0118,0.0125,0.0085,0.0081,0.0087,0.0029,0.0026,-0.001,-0.0047,-0.0055,-0.0061,-0.0073,-0.0088,-0.0076,-0.0071,-0.0064,-0.011,-0.0107,-0.0104,-0.0138,-0.0138,-0.0138,0,0,0.0186,0.0173,0.019,0.0181,0.0167,0.0152,0.0154,0.0126,0.0113,0.0103,0.0065,0.0041,0.0005,-0.0016,-0.0031,-0.001,-0.0059,-0.002,0.003,-0.0013,-0.001,-0.0009,-0.005,-0.0052,-0.0013,-0.0013,-0.0013,0,0.0202,0.022,0.0192,0.0206,0.0211,0.017,0.0194,0.0176,0.0145,0.0141,0.0114,0.0061,0.0026,0.0021,0.0028,0.0005,-0.0029,0.0009,-0.0004,-0.0004,-0.0003,-0.0046,-0.005,-0.0009,-0.0009,-0.001,-0.001,0,0.0244,0.026,0.027,0.0279,0.0279,0.0291,0.027,0.0264,0.0241,0.0219,0.0199,0.0143,0.0115,0.0096,0.0069,0.0061,0.0032,0.0005,-0.0019,0.0004,-0.0042,-0.0047,-0.0004,-0.0005,-0.0006,-0.0007,0,0,0.0279,0.0299,0.0304,0.0327,0.0321,0.0331,0.0342,0.0343,0.0356,0.0306,0.0312,0.0261,0.0221,0.0201,0.0156,0.0118,0.0086,0.0071,0.0067,0.0037,-0.0009,-0.0025,-0.0033,0.0054,0.0054,0.0053,-0.0042,0,0.0324,0.0375,0.0371,0.0426,0.0453,0.043,0.0449,0.0441,0.0418,0.0409,0.0344,0.0328,0.0265,0.0253,0.0205,0.0117,0.0075,0.0115,-0.0032,-0.0036,-0.0048,-0.0038,0.0052,-0.0046,-0.0047,-0.0048,-0.0049,0,0.0371,0.0401,0.0463,0.0511,0.0521,0.0546,0.0572,0.0583,0.0555,0.0533,0.0494,0.0439,0.0385,0.0321,0.0184,0.0211,0.0113,0.0036,0.003,-0.0013,-0.0062,-0.0076,-0.006,-0.0059,-0.0058,-0.0057,-0.0057,0,0.0414,0.047,0.0527,0.054,0.0579,0.0606,0.0627,0.0621,0.0648,0.0612,0.0618,0.0528,0.0493,0.0359,0.02,0.0192,0.0037,0.0003,-0.0105,-0.0108,-0.0099,-0.0099,-0.0095,-0.0095,-0.0095,-0.0094,-0.0094,0,0.0462,0.051,0.0555,0.0583,0.0665,0.0665,0.0735,0.0733,0.0743,0.0781,0.0689,0.0686,0.05,0.039,0.023,0.005,0.0057,-0.0092,-0.0131,-0.0065,-0.0061,-0.0103,-0.0103,-0.0098,-0.0097,-0.0096,-0.0096,0,0.0499,0.0525,0.0598,0.0656,0.0688,0.0742,0.0823,0.0864,0.086,0.0904,0.0901,0.0807,0.0658,0.0465,0.0243,0.0103,-0.0077,-0.0146,-0.0053,-0.0086,-0.0203,-0.0198,-0.0271,-0.0272,-0.0273,-0.0274,-0.0275,0,0.052,0.0561,0.0657,0.0711,0.0744,0.0827,0.0887,0.0919,0.0967,0.0976,0.1001,0.0886,0.0792,0.0479,0.0256,-0.0048,-0.0099,-0.0199,-0.0209,-0.0189,-0.022,-0.0213,-0.0206,-0.0277,-0.0277,-0.0277,-0.0278,0,0.0562,0.0595,0.0654,0.077,0.0849,0.0945,0.1031,0.1078,0.1111,0.1119,0.1084,0.0922,0.0751,0.0491,0.0255,0.0033,-0.0138,-0.0211,-0.0211,-0.0222,-0.0197,-0.0225,-0.0217,-0.0281,-0.0281,-0.028,-0.028,0,0.0592,0.0639,0.0719,0.0823,0.0926,0.1021,0.1069,0.1123,0.1171,0.1176,0.1159,0.0968,0.0859,0.0532,0.0315,0.0095,0.003,-0.0057,-0.0065,-0.0064,0.0015,0.0077,0.0051,0,0,0,0,0,0.0618,0.0672,0.0768,0.0876,0.0978,0.1044,0.1148,0.1183,0.1221,0.121,0.1189,0.1027,0.0705,0.057,0.035,0.0273,-0.0021,0.0003,-0.0128,-0.0303,-0.0298,-0.0243,0,0,0,0,0,0,0.0631,0.0718,0.0765,0.0897,0.0978,0.1096,0.1163,0.1195,0.1191,0.1195,0.1036,0.0959,0.0654,0.0837,0.0344,0.0277,0.0158,-0.0141,-0.0146,-0.0305,-0.0301,-0.0297,-0.024,0,0,0,0,0]}]]